Location: Frizzleburg
(41.0764°N, 80.4548°W)
Time: 21:30:54
(UTC+00:00)

BREEZE-M DEB (TANK) - Pass Details

Date: 17 November 2019
Orbit: 310 x 15439 km, 49.5° (Epoch: 14 December)

Event Time Altitude Azimuth Distance (km) Brightness Sun altitude
Exits shadow 10:37:46 53° 183° (S) 389 1.5 -17.7°
Drops below altitude 10° 10:39:49 10° 134° (SE) 1,292 5.1 -17.3°
Sets 10:42:03 0° 130° (SE) 2,472 6.7 -16.9°
